• In Deutschland
  • Länderverzeichnis
  • Für 7 Tage
  • Wassertemperatur
  • Satellitenkarten
  • Wetterkarte
  • Widgets
  • user-avatar
    Anmelden

    Stündliche Wetter Canberra

    Heute, 26 Mai, Samstag

    Zeit Temperatur Niederschläge Wind Luftdruck Luftfeuchtigkeit
    00:00 +7°C° 0 mm 1 m/S 717 mmHg 96%
    01:00 +7°C° 0 mm 1 m/S 717 mmHg 96%
    02:00 +7°C° 0 mm 1 m/S 717 mmHg 96%
    03:00 +7°C° 0 mm 1 m/S 717 mmHg 96%
    04:00 +7°C° 0 mm 1 m/S 717 mmHg 97%
    05:00 +7°C° 0 mm 1 m/S 717 mmHg 96%
    06:00 +7°C° 0 mm 1 m/S 717 mmHg 96%
    07:00 +7°C° 0 mm 1 m/S 717 mmHg 96%
    08:00 +9°C° 0 mm 1 m/S 718 mmHg 85%
    09:00 +12°C° 0 mm 1 m/S 718 mmHg 74%
    10:00 +13°C° 0 mm 1 m/S 718 mmHg 60%
    11:00 +15°C° 0 mm 1 m/S 718 mmHg 53%
    12:00 +18°C° 0 mm 1 m/S 717 mmHg 46%
    13:00 +19°C° 0 mm 2 m/S 717 mmHg 39%
    14:00 +18°C° 0 mm 2 m/S 717 mmHg 42%
    15:00 +18°C° 0 mm 2 m/S 717 mmHg 45%
    16:00 +16°C° 0 mm 1 m/S 716 mmHg 53%
    17:00 +14°C° 0 mm 1 m/S 716 mmHg 63%
    18:00 +12°C° 0 mm 1 m/S 716 mmHg 72%
    19:00 +9°C° 0 mm 1 m/S 716 mmHg 82%
    20:00 +9°C° 0 mm 1 m/S 717 mmHg 83%
    21:00 +9°C° 0 mm 1 m/S 717 mmHg 84%
    22:00 +8°C° 0 mm 1 m/S 717 mmHg 85%
    23:00 +8°C° 0 mm 1 m/S 717 mmHg 84%

    Morgen, 27 Mai, Sonntag

    Zeit Temperatur Niederschläge Wind Luftdruck Luftfeuchtigkeit
    00:00 +8°C° 0 mm 1 m/S 717 mmHg 84%
    01:00 +7°C° 0 mm 1 m/S 717 mmHg 84%
    02:00 +7°C° 0 mm 1 m/S 717 mmHg 83%
    03:00 +7°C° 0 mm 1 m/S 717 mmHg 82%
    04:00 +7°C° 0 mm 1 m/S 716 mmHg 81%
    05:00 +7°C° 0 mm 1 m/S 717 mmHg 81%
    06:00 +7°C° 0 mm 1 m/S 717 mmHg 81%
    07:00 +7°C° 0 mm 1 m/S 717 mmHg 81%
    08:00 +10°C° 0 mm 1 m/S 717 mmHg 72%
    09:00 +13°C° 0 mm 1 m/S 717 mmHg 62%
    10:00 +16°C° 0 mm 1 m/S 718 mmHg 53%
    11:00 +18°C° 0 mm 1 m/S 717 mmHg 49%
    12:00 +20°C° 0 mm 1 m/S 717 mmHg 45%
    13:00 +20°C° 0 mm 2 m/S 716 mmHg 40%
    14:00 +19°C° 0 mm 2 m/S 716 mmHg 44%
    15:00 +20°C° 0 mm 1 m/S 716 mmHg 48%
    16:00 +19°C° 0 mm 1 m/S 716 mmHg 52%
    17:00 +16°C° 0 mm 1 m/S 716 mmHg 61%
    18:00 +14°C° 0 mm 1 m/S 716 mmHg 69%
    19:00 +11°C° 0 mm 1 m/S 716 mmHg 78%
    20:00 +11°C° 0 mm 1 m/S 716 mmHg 79%
    21:00 +11°C° 0 mm 1 m/S 716 mmHg 80%
    22:00 +10°C° 0 mm 1 m/S 716 mmHg 82%
    23:00 +10°C° 0 mm 1 m/S 716 mmHg 82%

    übermorgen, 28 Mai, Montag

    Zeit Temperatur Niederschläge Wind Luftdruck Luftfeuchtigkeit
    00:00 +10°C° 0 mm 1 m/S 716 mmHg 83%
    01:00 +10°C° 0 mm 1 m/S 716 mmHg 84%
    02:00 +8°C° 0 mm 0 m/S 715 mmHg 84%
    03:00 +8°C° 0 mm 0 m/S 715 mmHg 85%
    04:00 +8°C° 0 mm 0 m/S 715 mmHg 86%
    05:00 +8°C° 0 mm 0 m/S 715 mmHg 86%
    06:00 +8°C° 0 mm 0 m/S 715 mmHg 85%
    07:00 +8°C° 0 mm 0 m/S 715 mmHg 85%
    08:00 +10°C° 0 mm 0 m/S 715 mmHg 75%
    09:00 +13°C° 0 mm 0 m/S 716 mmHg 65%
    10:00 +15°C° 0 mm 0 m/S 716 mmHg 55%
    11:00 +18°C° 0 mm 1 m/S 715 mmHg 50%
    12:00 +19°C° 0 mm 1 m/S 715 mmHg 45%
    13:00 +20°C° 0 mm 1 m/S 715 mmHg 41%
    14:00 +20°C° 0 mm 1 m/S 714 mmHg 44%
    15:00 +19°C° 0 mm 1 m/S 714 mmHg 47%
    16:00 +18°C° 0 mm 1 m/S 714 mmHg 50%
    17:00 +15°C° 0 mm 1 m/S 714 mmHg 57%
    18:00 +13°C° 0 mm 1 m/S 714 mmHg 64%
    19:00 +12°C° 0 mm 1 m/S 714 mmHg 71%
    20:00 +11°C° 0 mm 1 m/S 714 mmHg 74%
    21:00 +10°C° 0 mm 1 m/S 714 mmHg 78%
    22:00 +9°C° 0 mm 1 m/S 714 mmHg 81%
    23:00 +9°C° 0 mm 1 m/S 713 mmHg 81%

    29 Mai, Dienstag

    Zeit Temperatur Niederschläge Wind Luftdruck Luftfeuchtigkeit
    00:00 +8°C° 0 mm 1 m/S 713 mmHg 82%
    01:00 +8°C° 0 mm 1 m/S 713 mmHg 82%
    02:00 +8°C° 0 mm 1 m/S 713 mmHg 82%
    03:00 +7°C° 0 mm 1 m/S 712 mmHg 81%
    04:00 +7°C° 0 mm 1 m/S 712 mmHg 81%
    05:00 +7°C° 0 mm 1 m/S 712 mmHg 81%
    06:00 +7°C° 0 mm 1 m/S 712 mmHg 81%
    07:00 +6°C° 0 mm 1 m/S 712 mmHg 81%
    08:00 +8°C° 0 mm 2 m/S 712 mmHg 71%
    09:00 +12°C° 0 mm 2 m/S 712 mmHg 61%
    10:00 +15°C° 0 mm 2 m/S 712 mmHg 51%
    11:00 +16°C° 0 mm 3 m/S 712 mmHg 49%
    12:00 +17°C° 0 mm 4 m/S 711 mmHg 47%
    13:00 +19°C° 0 mm 4 m/S 711 mmHg 45%
    14:00 +18°C° 0 mm 4 m/S 710 mmHg 48%
    15:00 +18°C° 0 mm 3 m/S 710 mmHg 51%
    16:00 +17°C° 0 mm 3 m/S 709 mmHg 55%
    17:00 +16°C° 0,2 mm 2 m/S 709 mmHg 64%
    18:00 +14°C° 0,2 mm 2 m/S 709 mmHg 74%
    19:00 +12°C° 0,2 mm 2 m/S 709 mmHg 84%
    20:00 +12°C° 0,4 mm 2 m/S 710 mmHg 86%
    21:00 +11°C° 0,4 mm 3 m/S 710 mmHg 88%
    22:00 +11°C° 0,4 mm 3 m/S 710 mmHg 90%
    23:00 +10°C° 0,1 mm 3 m/S 710 mmHg 91%

    30 Mai, Mittwoch

    Zeit Temperatur Niederschläge Wind Luftdruck Luftfeuchtigkeit
    00:00 +9°C° 0,1 mm 3 m/S 710 mmHg 92%
    01:00 +9°C° 0,1 mm 3 m/S 710 mmHg 92%
    02:00 +8°C° 0 mm 3 m/S 710 mmHg 93%
    03:00 +6°C° 0 mm 2 m/S 710 mmHg 94%
    04:00 +5°C° 0 mm 2 m/S 711 mmHg 94%
    05:00 +5°C° 0 mm 2 m/S 711 mmHg 94%
    06:00 +4°C° 0 mm 2 m/S 712 mmHg 93%
    07:00 +4°C° 0 mm 2 m/S 712 mmHg 93%
    08:00 +5°C° 0 mm 2 m/S 713 mmHg 85%
    09:00 +7°C° 0 mm 2 m/S 714 mmHg 76%
    10:00 +9°C° 0 mm 2 m/S 714 mmHg 68%
    11:00 +10°C° 0 mm 2 m/S 714 mmHg 58%
    12:00 +12°C° 0 mm 2 m/S 714 mmHg 48%
    13:00 +12°C° 0 mm 3 m/S 714 mmHg 38%
    14:00 +12°C° 0 mm 3 m/S 714 mmHg 39%
    15:00 +12°C° 0 mm 3 m/S 714 mmHg 40%
    16:00 +11°C° 0 mm 3 m/S 714 mmHg 41%
    17:00 +9°C° 0 mm 3 m/S 714 mmHg 49%
    18:00 +7°C° 0 mm 3 m/S 715 mmHg 56%
    19:00 +4°C° 0 mm 3 m/S 715 mmHg 64%
    20:00 +4°C° 0 mm 3 m/S 715 mmHg 68%
    21:00 +4°C° 0 mm 2 m/S 715 mmHg 71%
    22:00 +4°C° 0 mm 2 m/S 716 mmHg 75%
    23:00 +4°C° 0 mm 2 m/S 715 mmHg 77%

    31 Mai, Donnerstag

    Zeit Temperatur Niederschläge Wind Luftdruck Luftfeuchtigkeit
    00:00 +4°C° 0 mm 2 m/S 715 mmHg 79%
    01:00 +4°C° 0 mm 2 m/S 715 mmHg 81%
    02:00 +4°C° 0 mm 2 m/S 715 mmHg 82%
    03:00 +4°C° 0 mm 3 m/S 715 mmHg 83%
    04:00 +4°C° 0 mm 3 m/S 715 mmHg 84%
    05:00 +5°C° 0 mm 2 m/S 715 mmHg 86%
    06:00 +4°C° 0 mm 2 m/S 715 mmHg 88%
    07:00 +4°C° 0 mm 2 m/S 715 mmHg 90%
    08:00 +5°C° 0 mm 3 m/S 716 mmHg 81%
    09:00 +8°C° 0 mm 3 m/S 716 mmHg 72%
    10:00 +10°C° 0 mm 3 m/S 716 mmHg 64%
    11:00 +11°C° 0 mm 4 m/S 716 mmHg 59%
    12:00 +12°C° 0 mm 4 m/S 715 mmHg 54%
    13:00 +13°C° 0 mm 4 m/S 715 mmHg 50%
    14:00 +13°C° 0 mm 4 m/S 714 mmHg 54%
    15:00 +12°C° 0 mm 5 m/S 714 mmHg 57%
    16:00 +10°C° 0 mm 5 m/S 714 mmHg 61%
    17:00 +10°C° 0 mm 4 m/S 714 mmHg 68%
    18:00 +8°C° 0 mm 4 m/S 714 mmHg 75%
    19:00 +7°C° 0 mm 4 m/S 714 mmHg 82%
    20:00 +7°C° 0 mm 4 m/S 714 mmHg 83%
    21:00 +8°C° 0 mm 4 m/S 714 mmHg 83%
    22:00 +8°C° 0 mm 4 m/S 714 mmHg 83%
    23:00 +9°C° 0 mm 3 m/S 714 mmHg 85%
    Mehr zeigen